Location: Plzen
(49.7500°N, 13.3670°E)
Time: 04:49:42
(UTC+01:00)

ISS - Visible Passes

Search period start: 19 January 2019 00:00
Search period end: 29 January 2019 00:00
Orbit: 404 x 411 km, 51.6° (Epoch: 19 January)

Date Brightness Start Highest point End Pass type
(mag) Time Alt. Az. Time Alt. Az. Time Alt. Az.
22 Jan -0.8 19:29:44 10° SSW 19:29:54 11° SSW 19:29:54 11° SSW visible
23 Jan -2.0 18:38:56 10° SSW 18:40:55 20° SSE 18:40:55 20° SSE visible
24 Jan -1.6 17:48:37 10° S 17:50:20 14° SE 17:51:51 11° ESE visible
24 Jan -1.7 19:23:05 10° SW 19:24:35 24° SW 19:24:35 24° SW visible
25 Jan -3.2 18:31:54 10° SW 18:35:00 39° SSE 18:35:26 37° SE visible
25 Jan -0.2 20:08:09 10° W 20:08:10 10° W 20:08:10 10° W visible
26 Jan -2.4 17:40:55 10° SSW 17:43:43 26° SE 17:46:13 12° E visible
26 Jan -2.5 19:16:42 10° WSW 19:18:57 40° WSW 19:18:57 40° WSW visible
27 Jan -3.8 18:25:17 10° WSW 18:28:34 70° SSE 18:29:40 38° E visible
27 Jan -0.5 20:01:55 10° W 20:02:23 13° W 20:02:23 13° W visible
28 Jan -3.2 17:34:00 10° SW 17:37:11 47° SSE 17:40:21 10° ENE visible
28 Jan -3.0 19:10:24 10° W 19:13:04 51° WNW 19:13:04 51° WNW visible
